Location: Góry Miechowskie
(50.3599°N, 20.1803°E)
Time: 20:03:52
(UTC+00:00)

Courier 1B - Pass Details

Date: 15 September 2024
Orbit: 962 x 1208 km, 28.3° (Epoch: 13 October)

Event Time Altitude Azimuth Distance (km) Brightness Sun altitude
Rises 13:12:40 0° 215° (SW) 3,914 11.7 31.8°
Reaches altitude 10° 13:18:23 10° 179° (S) 3,028 10.7 31.1°
Maximum altitude 13:19:52 11° 168° (SSE) 2,996 10.5 31.0°
Drops below altitude 10° 13:21:21 10° 156° (SSE) 3,060 10.4 30.8°
Sets 13:27:18 0° 122° (ESE) 4,075 10.6 30.0°
